Location: Cutler
(25.6150°N, 80.3110°W)
Time: 23:59:36
(UTC-04:00)

Vanguard 1 - Pass Details

Date: 24 January 2018
Orbit: 650 x 3833 km, 34.3° (Epoch: 21 May)

Event Time Altitude Azimuth Distance (km) Brightness Sun altitude
Rises 01:19:32 0° 287° (WNW) 3,824 - -77.5°
Reaches altitude 10° 01:21:47 10° 293° (WNW) 3,123 - -77.1°
Maximum altitude 01:29:35 54° 10° (N) 2,061 - -75.5°
Exits shadow 01:40:21 19° 80° (E) 4,561 13.5 -73.2°
Drops below altitude 10° 01:44:10 10° 85° (E) 5,616 14.0 -72.4°
Sets 01:49:49 0° 89° (E) 7,103 14.7 -71.2°
